• In Schweiz
  • Länderverzeichnis
  • Für 7 Tage
  • Wassertemperatur
  • Satellitenkarten
  • Wetterkarte
  • Widgets
  • user-avatar
    Anmelden

    Stündliche Wetter Ozercy

    Heute, 22 Oktober, Montag

    Zeit Temperatur Niederschläge Wind Luftdruck Luftfeuchtigkeit
    00:00 +3°C° 0 mm 3 m/S 759 mmHg 90%
    01:00 +3°C° 0 mm 3 m/S 758 mmHg 90%
    02:00 +4°C° 0 mm 4 m/S 758 mmHg 89%
    03:00 +4°C° 0 mm 4 m/S 758 mmHg 89%
    04:00 +4°C° 0 mm 4 m/S 757 mmHg 89%
    05:00 +4°C° 0 mm 4 m/S 757 mmHg 89%
    06:00 +3°C° 0 mm 5 m/S 756 mmHg 88%
    07:00 +3°C° 0 mm 5 m/S 756 mmHg 87%
    08:00 +5°C° 0 mm 5 m/S 755 mmHg 86%
    09:00 +5°C° 0 mm 5 m/S 755 mmHg 83%
    10:00 +6°C° 0 mm 5 m/S 754 mmHg 80%
    11:00 +7°C° 0 mm 6 m/S 753 mmHg 76%
    12:00 +7°C° 0.1 mm 5 m/S 753 mmHg 76%
    13:00 +7°C° 0.1 mm 5 m/S 752 mmHg 76%
    14:00 +8°C° 0.1 mm 5 m/S 751 mmHg 76%
    15:00 +7°C° 0.5 mm 5 m/S 751 mmHg 79%
    16:00 +7°C° 0.5 mm 5 m/S 750 mmHg 81%
    17:00 +7°C° 0.5 mm 5 m/S 750 mmHg 83%
    18:00 +7°C° 0.5 mm 4 m/S 750 mmHg 85%
    19:00 +7°C° 0.5 mm 4 m/S 749 mmHg 87%
    20:00 +7°C° 0.5 mm 4 m/S 749 mmHg 89%
    21:00 +7°C° 0.1 mm 4 m/S 749 mmHg 88%
    22:00 +6°C° 0.1 mm 4 m/S 749 mmHg 88%
    23:00 +6°C° 0.1 mm 4 m/S 749 mmHg 87%

    Morgen, 23 Oktober, Dienstag

    Zeit Temperatur Niederschläge Wind Luftdruck Luftfeuchtigkeit
    00:00 +5°C° 0 mm 4 m/S 749 mmHg 88%
    01:00 +4°C° 0 mm 3 m/S 749 mmHg 89%
    02:00 +4°C° 0 mm 3 m/S 749 mmHg 89%
    03:00 +3°C° 0 mm 3 m/S 749 mmHg 90%
    04:00 +3°C° 0 mm 3 m/S 748 mmHg 90%
    05:00 +3°C° 0 mm 2 m/S 748 mmHg 91%
    06:00 +2°C° 0 mm 3 m/S 748 mmHg 90%
    07:00 +2°C° 0 mm 3 m/S 748 mmHg 90%
    08:00 +2°C° 0 mm 3 m/S 747 mmHg 89%
    09:00 +3°C° 0 mm 3 m/S 747 mmHg 85%
    10:00 +4°C° 0 mm 3 m/S 746 mmHg 80%
    11:00 +5°C° 0 mm 3 m/S 745 mmHg 75%
    12:00 +7°C° 0 mm 3 m/S 745 mmHg 73%
    13:00 +7°C° 0 mm 3 m/S 744 mmHg 70%
    14:00 +8°C° 0 mm 3 m/S 743 mmHg 67%
    15:00 +7°C° 0 mm 3 m/S 742 mmHg 71%
    16:00 +5°C° 0 mm 3 m/S 741 mmHg 76%
    17:00 +4°C° 0 mm 3 m/S 740 mmHg 80%
    18:00 +4°C° 0.1 mm 3 m/S 739 mmHg 81%
    19:00 +4°C° 0.1 mm 4 m/S 738 mmHg 81%
    20:00 +4°C° 0.1 mm 4 m/S 737 mmHg 82%
    21:00 +4°C° 0 mm 4 m/S 736 mmHg 83%
    22:00 +4°C° 0 mm 4 m/S 734 mmHg 84%
    23:00 +3°C° 0 mm 4 m/S 733 mmHg 85%

    übermorgen, 24 Oktober, Mittwoch

    Zeit Temperatur Niederschläge Wind Luftdruck Luftfeuchtigkeit
    00:00 +2°C° 0.3 mm 5 m/S 732 mmHg 84%
    01:00 +2°C° 0.3 mm 5 m/S 731 mmHg 84%
    02:00 +2°C° 0.3 mm 5 m/S 730 mmHg 84%
    03:00 +2°C° 0.5 mm 5 m/S 730 mmHg 84%
    04:00 +2°C° 0.5 mm 5 m/S 729 mmHg 84%
    05:00 +2°C° 0.5 mm 5 m/S 729 mmHg 83%
    06:00 +2°C° 0.4 mm 5 m/S 729 mmHg 84%
    07:00 +2°C° 0.4 mm 5 m/S 729 mmHg 84%
    08:00 +3°C° 0.4 mm 4 m/S 729 mmHg 84%
    09:00 +4°C° 0.2 mm 4 m/S 729 mmHg 84%
    10:00 +4°C° 0.2 mm 4 m/S 730 mmHg 83%
    11:00 +4°C° 0.2 mm 4 m/S 730 mmHg 82%
    12:00 +4°C° 0.2 mm 4 m/S 731 mmHg 82%
    13:00 +4°C° 0.2 mm 4 m/S 731 mmHg 82%
    14:00 +4°C° 0.2 mm 4 m/S 732 mmHg 82%
    15:00 +4°C° 0.2 mm 4 m/S 733 mmHg 83%
    16:00 +4°C° 0.2 mm 3 m/S 733 mmHg 84%
    17:00 +4°C° 0.2 mm 3 m/S 734 mmHg 85%
    18:00 +3°C° 0.1 mm 3 m/S 735 mmHg 85%
    19:00 +3°C° 0.1 mm 3 m/S 735 mmHg 84%
    20:00 +3°C° 0.1 mm 3 m/S 736 mmHg 84%
    21:00 +2°C° 0 mm 3 m/S 737 mmHg 87%
    22:00 +2°C° 0 mm 3 m/S 737 mmHg 89%
    23:00 +2°C° 0 mm 2 m/S 737 mmHg 91%

    25 Oktober, Donnerstag

    Zeit Temperatur Niederschläge Wind Luftdruck Luftfeuchtigkeit
    00:00 +2°C° 0 mm 2 m/S 738 mmHg 92%
    01:00 +1°C° 0 mm 2 m/S 738 mmHg 94%
    02:00 +1°C° 0 mm 2 m/S 738 mmHg 95%
    03:00 +1°C° 0 mm 2 m/S 738 mmHg 95%
    04:00 +1°C° 0 mm 2 m/S 738 mmHg 96%
    05:00 -1°C° 0 mm 2 m/S 738 mmHg 96%
    06:00 -1°C° 0 mm 2 m/S 738 mmHg 96%
    07:00 +2°C° 0 mm 1 m/S 738 mmHg 95%
    08:00 +2°C° 0 mm 1 m/S 738 mmHg 95%
    09:00 +3°C° 0 mm 1 m/S 738 mmHg 90%
    10:00 +4°C° 0 mm 1 m/S 737 mmHg 86%
    11:00 +5°C° 0 mm 1 m/S 737 mmHg 81%
    12:00 +5°C° 0 mm 2 m/S 737 mmHg 79%
    13:00 +5°C° 0 mm 2 m/S 737 mmHg 77%
    14:00 +4°C° 0 mm 3 m/S 736 mmHg 75%
    15:00 +4°C° 0 mm 2 m/S 736 mmHg 80%
    16:00 +4°C° 0 mm 2 m/S 737 mmHg 85%
    17:00 +3°C° 0 mm 2 m/S 737 mmHg 90%
    18:00 +2°C° 0 mm 2 m/S 737 mmHg 91%
    19:00 +2°C° 0 mm 2 m/S 737 mmHg 92%
    20:00 +2°C° 0 mm 2 m/S 737 mmHg 94%
    21:00 +1°C° 0 mm 2 m/S 737 mmHg 94%
    22:00 +1°C° 0 mm 2 m/S 738 mmHg 94%
    23:00 +1°C° 0 mm 2 m/S 738 mmHg 95%

    26 Oktober, Freitag

    Zeit Temperatur Niederschläge Wind Luftdruck Luftfeuchtigkeit
    00:00 +1°C° 0 mm 2 m/S 738 mmHg 95%
    01:00 +1°C° 0 mm 2 m/S 738 mmHg 95%
    02:00 +1°C° 0 mm 2 m/S 738 mmHg 95%
    03:00 0°C° 0 mm 3 m/S 739 mmHg 95%
    04:00 0°C° 0 mm 3 m/S 739 mmHg 95%
    05:00 0°C° 0 mm 3 m/S 739 mmHg 95%
    06:00 0°C° 0 mm 3 m/S 739 mmHg 94%
    07:00 0°C° 0 mm 3 m/S 740 mmHg 93%
    08:00 0°C° 0 mm 4 m/S 740 mmHg 91%
    09:00 0°C° 0 mm 4 m/S 740 mmHg 87%
    10:00 +1°C° 0 mm 4 m/S 741 mmHg 83%
    11:00 +3°C° 0 mm 4 m/S 741 mmHg 80%
    12:00 +3°C° 0 mm 4 m/S 741 mmHg 77%
    13:00 +3°C° 0 mm 4 m/S 742 mmHg 74%
    14:00 +3°C° 0 mm 4 m/S 742 mmHg 71%
    15:00 +1°C° 0 mm 4 m/S 743 mmHg 73%
    16:00 +2°C° 0 mm 3 m/S 743 mmHg 74%
    17:00 +2°C° 0 mm 3 m/S 744 mmHg 76%
    18:00 +2°C° 0 mm 2 m/S 744 mmHg 78%
    19:00 +2°C° 0 mm 2 m/S 745 mmHg 79%
    20:00 +2°C° 0 mm 2 m/S 745 mmHg 80%
    21:00 +1°C° 0 mm 2 m/S 745 mmHg 84%
    22:00 +1°C° 0 mm 2 m/S 745 mmHg 87%
    23:00 -1°C° 0 mm 2 m/S 746 mmHg 90%

    27 Oktober, Samstag

    Zeit Temperatur Niederschläge Wind Luftdruck Luftfeuchtigkeit
    00:00 -1°C° 0 mm 2 m/S 746 mmHg 91%
    01:00 -1°C° 0 mm 2 m/S 746 mmHg 91%
    02:00 -1°C° 0 mm 2 m/S 745 mmHg 92%
    03:00 +1°C° 0.4 mm 2 m/S 745 mmHg 91%
    04:00 +1°C° 0.4 mm 3 m/S 744 mmHg 89%
    05:00 0°C° 0.4 mm 4 m/S 744 mmHg 88%
    06:00 +1°C° 0.9 mm 4 m/S 743 mmHg 88%
    07:00 +1°C° 0.9 mm 4 m/S 743 mmHg 88%
    08:00 +2°C° 0.9 mm 5 m/S 742 mmHg 88%
    09:00 +3°C° 0.8 mm 5 m/S 742 mmHg 88%
    10:00 +3°C° 0.8 mm 5 m/S 742 mmHg 87%
    11:00 +5°C° 0.8 mm 5 m/S 742 mmHg 87%
    12:00 +5°C° 0.3 mm 5 m/S 742 mmHg 87%
    13:00 +6°C° 0.3 mm 4 m/S 742 mmHg 86%
    14:00 +6°C° 0.3 mm 4 m/S 742 mmHg 86%
    15:00 +6°C° 0.1 mm 4 m/S 742 mmHg 87%
    16:00 +6°C° 0.1 mm 4 m/S 743 mmHg 89%
    17:00 +7°C° 0.1 mm 3 m/S 743 mmHg 91%
    18:00 +5°C° 0 mm 3 m/S 743 mmHg 92%
    19:00 +5°C° 0 mm 3 m/S 744 mmHg 93%
    20:00 +6°C° 0 mm 2 m/S 744 mmHg 95%
    21:00 +6°C° 0 mm 2 m/S 745 mmHg 96%
    22:00 +5°C° 0 mm 2 m/S 745 mmHg 96%
    23:00 +6°C° 0 mm 1 m/S 745 mmHg 97%

    28 Oktober, Sonntag

    Zeit Temperatur Niederschläge Wind Luftdruck Luftfeuchtigkeit
    00:00 +6°C° 0.2 mm 1 m/S 745 mmHg 97%
    01:00 +6°C° 0.2 mm 1 m/S 745 mmHg 97%
    02:00 +6°C° 0.2 mm 1 m/S 746 mmHg 97%
    03:00 +6°C° 0.4 mm 1 m/S 745 mmHg 97%
    04:00 +5°C° 0.4 mm 2 m/S 745 mmHg 97%
    05:00 +5°C° 0.4 mm 2 m/S 744 mmHg 97%
    06:00 +4°C° 1.2 mm 3 m/S 744 mmHg 96%
    07:00 +4°C° 1.2 mm 3 m/S 744 mmHg 95%
    08:00 +5°C° 1.2 mm 4 m/S 743 mmHg 95%
    09:00 +5°C° 1.4 mm 4 m/S 742 mmHg 94%
    10:00 +5°C° 1.4 mm 4 m/S 742 mmHg 93%
    11:00 +5°C° 1.4 mm 4 m/S 741 mmHg 93%
    12:00 +5°C° 2 mm 4 m/S 740 mmHg 93%
    13:00 +6°C° 2 mm 4 m/S 740 mmHg 94%
    14:00 +7°C° 2 mm 3 m/S 739 mmHg 94%
    15:00 +7°C° 0.9 mm 4 m/S 738 mmHg 93%
    16:00 +8°C° 0.9 mm 4 m/S 738 mmHg 91%
    17:00 +10°C° 0.9 mm 4 m/S 738 mmHg 90%
    18:00 +9°C° 0.1 mm 5 m/S 738 mmHg 87%
    19:00 +9°C° 0.1 mm 6 m/S 738 mmHg 84%
    20:00 +8°C° 0.1 mm 7 m/S 739 mmHg 81%
    21:00 +6°C° 0 mm 7 m/S 740 mmHg 80%
    22:00 +5°C° 0 mm 7 m/S 741 mmHg 80%
    23:00 +4°C° 0 mm 7 m/S 743 mmHg 79%
    Mehr zeigen